{"data":{"norad_id":61527,"intl_designator":"2024-183U","name":"STARLINK-32313","alt_names":[],"object_type":"PAYLOAD","status":"ACTIVE","operator":null,"country":"US","launch_date":"2024-10-15","launch_site_code":"AFETR","launch_vehicle":null,"mission":null,"orbit_class":"UNKNOWN","rcs_meters":null,"size_class":null,"mass_kg":null,"dimensions":null,"purposes":["comms"],"wikipedia_slug":null,"has_3d_model":false,"image_url":null,"decayed_at":null,"tle_current":{"epoch":"2026-05-25T00:14:47.505120Z","epoch_age_seconds":74499,"freshness":"FRESH","line1":"1 61527U 24183U   26145.01027205  .00000912  00000+0  42929-4 0  9995","line2":"2 61527  53.1602 148.2044 0001418  86.1869 273.9294 15.30193400 91333","mean_motion":15.301934,"eccentricity":0.0001418,"inclination_deg":53.1602,"raan_deg":148.2044,"arg_perigee_deg":86.1869,"mean_anomaly_deg":273.9294,"bstar":4.2929e-5,"rev_number":9133,"period_min":94.105751599765,"perigee_km":474.26296778267,"apogee_km":476.20658401832,"semimajor_km":6853.3717759005,"source":"CELESTRAK","updated_at":"2026-05-25T13:38:19.395907Z"}}}